Regional Weather Roundup
Issued by NWS Sterling, VA

Home | Current Version | Previous Version | Text Only | Print | Product List | Glossary On
Versions: 1 2 3 4 5 6 7 8 9 10 11 12 13 14 15 16 17 18 19 20 21 22 23 24 25 26 27 28 29 30 31 32 33 34 35 36 37 38 39 40 41 42 43 44 45 46 47 48 49 50
000
ASUS41 KLWX 041510
RWRLWX

REGIONAL WEATHER ROUNDUP
NATIONAL WEATHER SERVICE BALTIMORE MD/WASHINGTON DC
1100 AM EDT WED MAY 04 2016

Note: "FAIR" indicates few or no clouds below 12,000 feet
with no significant weather and/or obstructions to visibility.
 TC=TEMPERATURE CELSIUS

 * =Non NWS site. Station does not report precipitation (e.g. rain,
    snow, etc.), thunder, or fog.

DCZ001-MDZ009-015-VAZ040>042-051-053>054-041600-
WASHINGTON METRO

CITY           SKY/WX    TMP DP  RH WIND       PRES   REMARKS
WASHINGTON NAT CLOUDY    55  52  89 NE5       29.74R
DULLES         CLOUDY    55  51  86 E7        29.72F
ANDREWS AFB    CLOUDY    53  51  92 E7        29.71F
FT BELVOIR     CLOUDY    55  52  88 CALM      29.72F
QUANTICO       CLOUDY    56  53  90 E6        29.73F
COLLEGE PARK*  CLOUDY    52  50  93 E3        29.73S
LEESBURG*      CLOUDY    55  55 100 SE7       29.73F
MANASSAS*      CLOUDY    55  54  94 E7        29.72S FOG
GAITHERSBURG*  CLOUDY    54  48  82 E7        29.76S

$$

MDZ006>007-011-014-041600-
BALTIMORE METRO

CITY           SKY/WX    TMP DP  RH WIND       PRES   REMARKS
BWI AIRPORT    CLOUDY    53  50  89 E7        29.73S
MD SCIENCE CTR   N/A     54  49  83 MISG      29.75S
MARTIN STATE   CLOUDY    54  52  94 NE8       29.76S
ANNAPOLIS      CLOUDY    53  50  89 E3        29.74S
FORT MEADE*    CLOUDY    52  48  87 E6        29.76S

$$

MDZ012-015-019>023-041600-
MARYLAND EASTERN SHORE

CITY           SKY/WX    TMP DP  RH WIND       PRES   REMARKS
OCEAN CITY     CLOUDY    52  51  97 NE12      29.70F FOG
SALISBURY      CLOUDY    54  53  97 NE9       29.70F FOG
CAMBRIDGE*     CLOUDY    52  50  93 N3        29.71F

$$

MDZ017>025-041600-
SOUTHERN MARYLAND

CITY           SKY/WX    TMP DP  RH WIND       PRES   REMARKS
PATUXENT RIVER CLOUDY    55  52  89 N7        29.71F FOG
ST INIGOES     CLOUDY    57  53  86 VRB3      29.70F
LEONARDTOWN*   CLOUDY    54  50  87 N3        29.73F

$$

MDZ003>005-041600-
NORTH CENTRAL MARYLAND

CITY           SKY/WX    TMP DP  RH WIND       PRES   REMARKS
FREDERICK*     CLOUDY    54  54 100 CALM      29.76S FOG
HAGERSTOWN APT PTSUNNY   59  52  77 E7        29.70S
WESTMINSTER*   DRIZZLE   54  34  47 CALM      29.73S

$$

MDZ501>502-041600-
WESTERN MARYLAND

CITY           SKY/WX    TMP DP  RH WIND       PRES   REMARKS
OAKLAND*       CLOUDY    45  43  93 S3        29.71S
CUMBERLAND*    MOSUNNY   59  50  72 CALM      29.74F

$$

VAZ025>031-041600-
SHENANDOAH VALLEY

CITY           SKY/WX    TMP DP  RH WIND       PRES   REMARKS
WINCHESTER*    CLOUDY    61  52  72 E5        29.71S
FRONT ROYAL*   CLOUDY    59  52  77 N3        29.69F
LURAY*         CLOUDY    59  50  72 CALM      29.70S
NEW MARKET*    CLOUDY    59  48  68 CALM      29.68F
STAUNTON*      PTSUNNY   61  53  74 CALM      29.72F
WAYNESBORO*    CLOUDY    59  48  66 S3        29.71S

$$

WVZ021-048>050-054>055-041600-
EASTERN WEST VIRGINIA PANHANDLE

CITY           SKY/WX    TMP DP  RH WIND       PRES   REMARKS
MARTINSBURG    CLOUDY    59  53  80 SE8       29.70S
PETERSBURG*    CLOUDY    57  51  82 CALM      29.72S

$$

VAZ036>039-050-041600-
CENTRAL FOOTHILLS

CITY           SKY/WX    TMP DP  RH WIND       PRES   REMARKS
CHARLOTTESVILL PTSUNNY   62  53  72 E3        29.70S
CULPEPER*      CLOUDY    60  56  86 E3        29.72S
ORANGE*        PTSUNNY   61  55  82 CALM      29.73S
GORDONSVILLE*  CLOUDY    62  55  77 NE3       29.70S
WARRENTON*     CLOUDY    58  52  80 E5        29.71S

$$

VAZ055>057-041600-
NORTH AND CENTRAL PIEDMONT

CITY           SKY/WX    TMP DP  RH WIND       PRES   REMARKS
FREDERICKSBRG* CLOUDY    56  56 100 E6        29.71F
STAFFORD*      CLOUDY    56  54  92 NE5       29.76S FOG

$$

NCZ024-NYZ072-PAZ021-071-VAZ022-071-041600-
OTHER REGIONAL OBSERVATIONS

CITY           SKY/WX    TMP DP  RH WIND       PRES   REMARKS
NEW YORK CITY  CLOUDY    51  43  74 NE14      29.82S
PHILADELPHIA   CLOUDY    53  47  79 E9        29.76F
PITTSBURGH     CLOUDY    57  40  52 S3        29.69F
ROANOKE        PTSUNNY   61  45  55 CALM      29.73F
RICHMOND       LGT RAIN  58  56  93 NE7       29.69F
RALEIGH        PTSUNNY   66  58  75 VRB3      29.71S

$$

ANZ530>537-041600-
MARINE OBSERVATIONS

STATION/POSITION TIME  TEMP    WIND        PRES
                       AIR SEA DIR/SP/G
                 (UTC) (F)     (DEG/KT/KT) (MB)
THOMAS PT LIGHT  1500   53 59   CALM  /  1 1008.1F
BALT KEY BRIDGE  1400   52      80/  9/ 10 1006.9S
COVE POINT       1400   53     100/  5/  8 1007.2R
LEWISETTA        1400   55 63  100/  5/  7 1006.0S
SOLOMONS ISLAND  1400   54 60   20/  4/  5   N/A
PINEY POINT      1400           70/  4/  6   N/A

$$




USA.gov is the U.S. government's official web portal to all federal, state and local government web resources and services.